TimeCDT,TemperatureF,Dew PointF,Humidity,Sea Level PressureIn,VisibilityMPH,Wind Direction,Wind SpeedMPH,Gust SpeedMPH,PrecipitationIn,Events,Conditions,WindDirDegrees,DateUTC
12:53 AM,48.9,46.0,90,30.09,10.0,ENE,6.9,-,N/A,,Overcast,60,2013-06-06 05:53:00
1:13 AM,48.2,44.6,87,30.06,10.0,NE,5.8,-,N/A,,Overcast,50,2013-06-06 06:13:00
1:53 AM,48.9,44.1,83,30.08,10.0,NE,4.6,-,N/A,,Overcast,50,2013-06-06 06:53:00
2:23 AM,48.2,44.6,87,30.06,10.0,NE,4.6,-,N/A,,Overcast,50,2013-06-06 07:23:00
2:53 AM,48.0,44.1,86,30.08,10.0,NE,3.5,-,N/A,,Overcast,40,2013-06-06 07:53:00
3:53 AM,48.0,44.1,86,30.07,10.0,NNE,4.6,-,N/A,,Overcast,30,2013-06-06 08:53:00
4:53 AM,48.0,44.1,86,30.07,10.0,NNE,5.8,-,N/A,,Overcast,30,2013-06-06 09:53:00
5:53 AM,48.9,42.1,77,30.07,10.0,NNE,4.6,-,N/A,,Overcast,30,2013-06-06 10:53:00
6:53 AM,48.9,43.0,80,30.07,10.0,NNE,4.6,-,N/A,,Overcast,30,2013-06-06 11:53:00
7:02 AM,50.0,42.8,76,30.05,10.0,NNE,4.6,-,N/A,,Overcast,30,2013-06-06 12:02:00
7:53 AM,50.0,44.1,80,30.07,10.0,NNE,6.9,-,N/A,,Overcast,30,2013-06-06 12:53:00
8:28 AM,50.0,42.8,76,30.06,10.0,NE,5.8,-,N/A,,Overcast,50,2013-06-06 13:28:00
8:53 AM,51.1,44.1,77,30.07,10.0,NE,10.4,-,N/A,,Overcast,50,2013-06-06 13:53:00
9:44 AM,53.6,44.6,72,30.06,10.0,Variable,5.8,-,N/A,,Overcast,0,2013-06-06 14:44:00
9:53 AM,53.1,45.0,74,30.08,10.0,Variable,6.9,-,N/A,,Overcast,0,2013-06-06 14:53:00
10:53 AM,54.0,46.0,75,30.07,10.0,ENE,6.9,-,N/A,,Overcast,60,2013-06-06 15:53:00
11:53 AM,55.0,46.9,74,30.08,10.0,ENE,5.8,-,N/A,,Overcast,70,2013-06-06 16:53:00
12:53 PM,55.9,46.9,72,30.08,10.0,East,9.2,-,N/A,,Overcast,80,2013-06-06 17:53:00
1:53 PM,55.0,46.9,74,30.09,10.0,East,9.2,-,N/A,,Overcast,90,2013-06-06 18:53:00
2:53 PM,57.0,46.9,69,30.08,10.0,NE,5.8,-,N/A,,Overcast,50,2013-06-06 19:53:00
3:53 PM,59.0,48.0,67,30.07,10.0,NNE,5.8,-,N/A,,Overcast,30,2013-06-06 20:53:00
4:27 PM,57.2,46.4,67,30.05,10.0,NNE,4.6,-,N/A,,Overcast,30,2013-06-06 21:27:00
4:53 PM,57.9,46.9,67,30.07,10.0,Variable,4.6,-,N/A,,Overcast,0,2013-06-06 21:53:00
5:53 PM,57.9,48.0,70,30.06,10.0,East,5.8,-,N/A,,Overcast,100,2013-06-06 22:53:00
6:53 PM,57.0,48.0,72,30.07,10.0,East,4.6,-,N/A,,Overcast,90,2013-06-06 23:53:00
7:53 PM,57.0,46.9,69,30.08,10.0,ESE,6.9,-,N/A,,Overcast,110,2013-06-07 00:53:00
8:53 PM,55.0,48.0,77,30.08,10.0,ESE,4.6,-,N/A,,Mostly Cloudy,120,2013-06-07 01:53:00
9:53 PM,52.0,46.9,83,30.08,10.0,ESE,4.6,-,N/A,,Clear,120,2013-06-07 02:53:00
10:53 PM,48.0,46.0,93,30.09,10.0,Calm,Calm,-,N/A,,Clear,0,2013-06-07 03:53:00
11:53 PM,46.9,46.0,97,30.08,10.0,Calm,Calm,-,N/A,,Clear,0,2013-06-07 04:53:00